sat.trackr.live / text

‹ back to catalog

STARLINK-34072

NORAD 64101 · 2025-110F

PAYLOAD ACTIVE UNKNOWN

§ Identity

Operator
Country
US
Launch date
2025-05-23
Launch site
AFWTR
Launch vehicle
Mass (kg)
RCS (m²)

Purposes: comms

External: N2YO · Heavens-Above · Gunter

§ Orbital elements

Epoch: 2026-05-25T02:29:07.168416Z

Period
94.01 min
Inclination
53.1588°
Eccentricity
0.0001148
Mean motion
15.31710355 rev/d
Perigee alt
469.9 km
Apogee alt
471.5 km
Semi-major
6,848.8 km
B*
5.7982e-4
RAAN
31.7006°
Arg perigee
73.9254°
Mean anomaly
286.1873°
Rev number
5,758

§ Raw data

STARLINK-340721 64101U 25110F   26145.10355519  .00017676  00000+0  57982-3 0  99982 64101  53.1588  31.7006 0001148  73.9254 286.1873 15.31710355 57586

JSON: /api/v1/satellites/64101 · /tle

For live sub-satellite position, see the globe view (requires WebGL).

§ Visibility from observer

Set your observer location to see the next 7 days of passes ≥ 10°. The values pass through the URL so the page stays shareable.

No JS? Fill the form by hand. The geolocation button needs JavaScript.